Retour au catalogue

STARLINK-1583

ActifCommunicationsVLEO
NORAD 46064·PAYLOAD·🇺🇸 United States

Lancé Aug 7, 2020 depuis Cape Canaveral Space Force Station

Loading…

Prochains Passages (prochaines 24 heures)

TLE

FraisSource: CelesTrak SupGP

Époque: Sep 14, 2026, 21:07 UTC

1 46064C 20055AP  26257.88034722 -.00013712  00000+0 -44099-3 0  2579
2 46064  53.1584 313.9336 0001314  83.8803 340.4460 15.31706462    12

Suivez STARLINK-1583 en temps réel avec AllMySat

Download on the App Store